Temperature
12 12 12 11 11 11 10 10 10 10 9 9 9 9 9 9 9 8 8 8 8 8 9 9 9 10 10 10 10 11 11 11 11 13 13 14 14 14 15 15 15 15 15
12 12 12 11 11 11 10 10 10 9 9 9 9 9 9 9 8 8 8 8 8 8 8 8 9 9 9 10 10 10 11 11 11 12 13 13 14 14 14 14 15 15 15
12 12 11 11 11 10 10 10 9 9 9 9 9 8 8 8 8 8 8 8 8 8 8 8 8 8 9 9 9 10 10 10 11 11 12 13 13 13 14 14 14 15 15
12 12 11 11 10 10 10 9 9 9 9 9 8 8 8 8 8 8 8 8 8 8 8 8 8 8 8 8 9 9 10 10 10 11 11 12 12 13 13 13 14 14 14
12 11 11 10 10 10 9 9 9 9 8 8 8 8 8 8 8 8 8 8 8 8 8 8 8 8 8 8 8 9 9 9 10 10 11 11 12 12 13 13 13 13 13
12 11 11 10 10 9 9 9 9 8 8 8 8 8 8 8 8 8 8 8 8 8 8 8 8 7 7 7 8 8 8 9 9 10 10 11 11 12 12 12 13 13 12
11 11 10 10 9 9 9 9 8 8 8 8 8 8 8 8 8 8 8 7 7 8 8 8 8 8 7 7 7 8 8 8 9 9 10 10 11 11 12 12 12 12 13
11 11 10 9 9 9 9 8 8 8 8 8 8 8 8 8 8 8 8 7 7 7 7 7 7 7 7 7 7 7 7 8 8 9 9 10 10 11 11 11 12 12 12
11 10 10 9 9 9 8 8 8 8 7 7 8 8 8 8 8 8 7 7 7 7 7 7 7 7 7 7 6 6 7 8 8 8 9 9 10 10 10 11 11 11 11
11 10 10 9 9 8 8 8 8 7 7 7 8 8 8 8 8 8 7 7 7 7 7 7 7 7 7 6 6 6 6 7 8 8 8 9 9 10 10 10 11 11 11
11 10 10 9 8 8 8 8 7 7 7 7 8 8 8 8 8 8 7 7 7 6 6 7 7 6 6 6 6 6 6 7 7 7 8 9 9 9 10 10 10 11 11
11 10 10 9 8 8 8 7 7 7 7 7 8 8 8 8 8 7 7 7 6 6 6 6 6 6 6 6 6 6 6 6 6 7 7 8 9 9 10 10 10 10 11
11 10 10 9 9 8 7 7 7 7 7 8 8 8 8 8 8 7 7 7 6 6 6 6 6 6 6 6 6 6 6 6 6 6 7 8 9 9 9 10 10 10 10
11 10 10 9 9 8 8 7 7 7 8 8 8 8 8 8 8 7 7 7 6 6 6 6 6 6 6 6 6 6 6 6 6 6 7 8 8 9 9 9 10 10 10
11 10 10 9 9 9 8 8 8 8 8 8 8 8 8 8 8 7 7 7 6 6 6 6 6 6 6 5 5 6 6 6 6 6 7 7 8 8 9 9 9 9 10
11 11 10 9 9 8 8 9 9 8 8 8 8 8 8 8 8 7 7 6 6 6 6 6 6 6 6 6 5 6 6 6 6 6 7 7 8 8 9 9 9 9 9
11 10 10 9 9 8 8 8 8 9 9 9 8 8 8 8 8 7 7 6 6 6 6 6 6 6 6 6 6 6 6 6 6 6 7 7 7 8 8 8 9 9 9
11 10 10 9 8 8 8 7 7 8 8 9 9 8 8 8 8 7 7 7 6 6 6 6 6 6 6 6 6 6 6 6 6 7 7 7 7 8 8 8 8 9 9
11 10 9 9 8 8 7 7 7 8 8 8 8 8 8 8 8 7 7 7 7 7 6 6 7 7 6 6 6 6 6 6 7 7 7 7 7 8 8 8 8 9 9
11 10 9 9 8 8 7 7 7 8 8 8 8 8 8 8 8 7 7 7 7 7 7 7 7 7 7 7 7 7 7 7 7 7 7 7 7 8 8 8 8 8 9
11 10 9 9 8 7 7 7 7 8 8 8 8 8 8 7 7 7 7 7 7 7 7 7 7 7 7 7 7 7 7 7 7 7 7 7 7 8 8 8 8 8 9
11 10 9 8 8 7 7 7 7 7 7 8 8 8 8 7 7 7 7 7 7 7 7 7 7 7 7 7 7 7 7 8 8 8 8 8 8 8 8 8 8 8 8
10 10 9 8 7 7 7 7 7 7 7 7 7 8 8 8 7 7 7 7 7 7 7 7 7 8 8 8 8 8 8 8 8 8 8 8 8 8 8 8 8 8 8
10 9 8 8 7 7 7 7 7 7 7 7 7 7 7 7 7 7 7 7 7 7 7 7 7 7 8 8 8 8 8 8 8 8 8 8 8 8 8 8 8 8 8
9 8 8 7 7 7 6 6 7 7 7 7 7 7 7 7 7 7 7 7 7 7 7 7 7 7 8 8 8 8 8 8 8 8 8 8 8 8 8 8 8 8 8
8 8 7 7 6 6 6 6 6 6 6 7 7 7 7 7 7 7 7 7 7 7 7 7 7 7 7 8 8 8 8 8 8 8 8 8 8 8 8 8 8 8 8
Wind_Speed
7 6 6 7 6 6 6 7 7 7 7 7 8 8 8 8 7 5 6 6 6 7 6 6 6 5 4 4 4 4 4 4 6 4 2 3 2 0 1 2 4 5 8
7 6 7 7 6 6 7 7 7 7 7 8 8 8 9 9 8 7 8 7 7 8 8 7 8 6 5 4 4 5 5 5 5 6 3 2 1 1 2 2 3 4 5
6 6 7 7 7 7 8 7 7 7 8 8 8 9 10 10 9 9 9 9 9 9 9 9 9 7 7 5 5 5 5 5 5 5 4 2 1 1 2 3 4 4 5
6 6 7 8 7 7 7 7 7 8 8 9 9 10 10 10 10 10 10 10 10 9 9 9 9 9 9 8 6 7 6 6 5 5 4 3 2 1 3 4 3 3 4
6 7 8 7 6 6 7 7 8 8 9 9 10 10 10 9 9 10 10 10 10 10 9 9 10 11 12 9 7 7 6 5 5 5 5 3 3 3 4 4 4 4 3
6 7 7 6 6 6 7 7 8 9 9 9 10 10 11 9 11 14 13 11 11 11 11 10 10 12 13 14 14 12 10 8 8 6 5 5 5 4 4 5 6 5 4
6 7 6 6 6 7 8 8 9 9 9 10 10 10 11 12 15 17 17 12 12 12 12 11 10 10 11 10 12 13 13 14 13 9 8 7 6 5 5 7 7 6 4
6 7 6 6 7 7 8 9 10 9 9 9 10 11 11 13 15 15 16 12 11 12 12 12 12 12 11 11 11 11 11 11 12 11 10 9 8 6 6 6 6 6 5
7 7 7 6 7 8 9 10 9 9 9 10 9 11 11 13 15 15 13 9 9 12 12 12 12 13 14 14 12 12 12 11 11 13 12 11 10 9 7 6 8 8 5
8 7 6 6 7 9 10 10 9 9 10 10 10 11 11 13 14 15 12 7 9 10 10 10 14 14 14 14 13 12 13 11 10 9 10 11 10 9 11 10 9 9 6
7 6 6 7 8 9 9 9 9 9 9 10 11 11 11 12 13 14 12 7 8 8 8 8 9 12 15 15 14 12 13 11 10 10 9 8 7 7 8 9 9 9 8
5 6 7 7 8 8 8 9 9 9 9 10 9 10 9 8 10 11 12 10 9 8 9 8 9 12 14 14 12 12 14 12 9 8 8 8 8 8 8 8 10 9 6
5 7 7 8 8 8 8 9 9 8 7 8 8 9 9 7 7 11 12 11 9 8 8 11 12 12 11 10 12 14 13 10 10 10 10 10 9 9 7 7 8 8 7
6 7 7 8 8 8 7 7 7 8 8 8 8 9 9 8 7 6 5 5 6 6 6 7 9 9 7 7 7 8 9 9 10 10 10 9 8 8 8 7 7 8 6
7 7 7 7 8 8 8 7 8 9 9 9 9 9 9 10 9 8 6 5 4 4 4 3 3 3 3 4 5 6 7 8 9 9 9 8 8 8 8 7 7 7 7
6 7 6 6 7 7 8 9 10 12 14 16 16 14 11 13 14 12 11 10 9 7 4 4 5 4 5 5 5 6 7 8 9 9 9 9 9 9 9 8 8 8 9
7 7 6 6 7 7 7 8 10 10 11 12 12 12 13 13 13 12 10 9 7 6 5 6 6 5 5 5 5 6 7 7 8 8 8 8 8 9 9 9 9 9 9
7 8 8 7 7 7 7 7 7 9 11 9 10 11 12 12 11 10 8 5 5 5 6 7 7 6 5 5 5 6 6 6 7 7 8 8 7 8 9 9 10 10 10
7 6 6 6 7 7 7 7 7 8 8 9 9 9 9 8 7 7 6 6 7 7 7 7 7 7 6 6 6 6 6 6 7 7 7 7 7 7 8 9 10 12 11
6 10 8 6 7 7 6 7 7 7 8 8 8 8 6 3 4 5 5 7 7 8 8 8 8 7 7 6 6 6 6 6 7 7 7 7 7 7 8 9 9 10 10
6 6 8 7 6 6 6 7 7 7 7 8 8 9 9 6 7 7 7 7 8 8 8 8 8 7 7 7 7 7 8 7 7 8 8 8 8 8 8 8 8 9 9
5 5 5 5 6 6 6 6 7 7 8 9 8 9 10 6 6 7 7 7 7 8 8 7 7 7 7 8 8 8 8 8 8 8 8 9 9 9 9 8 9 8 9
5 5 5 5 5 6 7 6 6 6 7 7 8 8 8 7 7 7 7 7 6 6 6 7 7 7 7 8 8 8 9 9 9 10 10 9 9 9 9 10 11 11 11
5 5 5 4 4 5 5 6 6 7 7 7 7 7 8 8 8 8 8 7 6 6 6 6 7 10 11 8 7 8 9 9 9 9 12 11 10 9 9 10 11 12 12
5 4 4 3 4 4 5 6 6 6 7 7 7 7 8 8 8 8 7 7 7 6 6 6 6 7 10 11 10 9 10 12 10 9 10 10 11 12 11 11 11 11 11
4 3 3 2 3 4 5 6 6 7 7 7 7 7 8 8 8 8 7 7 7 6 6 5 6 6 7 7 9 10 10 10 11 11 10 9 10 11 12 11 13 12 13
Wind_Direction
258 257 260 261 257 259 262 267 271 276 279 280 282 285 285 281 274 263 262 265 264 271 275 274 277 276 271 268 263 256 253 251 265 283 276 300 308 7 101 148 158 168 183
260 262 262 264 264 265 267 271 274 277 279 279 281 284 283 281 274 267 270 270 261 264 267 267 271 276 270 264 258 256 253 246 253 275 284 294 314 161 134 125 110 116 131
263 264 267 266 262 263 267 274 277 277 280 281 280 280 281 281 279 274 269 269 263 259 258 257 261 264 267 262 254 255 255 253 243 258 276 280 282 155 132 118 110 106 105
263 262 264 264 261 262 268 272 274 275 277 278 278 277 278 278 278 276 273 271 268 262 255 250 251 250 254 257 254 250 250 251 247 250 259 259 253 185 153 153 145 130 118
263 263 263 266 266 265 268 271 273 274 277 276 280 280 277 276 272 267 266 269 267 266 261 250 246 247 248 245 243 241 237 240 239 241 245 243 237 199 186 164 161 143 116
260 264 269 271 270 267 269 273 276 276 277 278 278 278 278 275 271 270 272 271 269 267 268 261 252 255 256 254 252 245 231 230 231 231 235 232 232 220 193 170 159 161 162
263 268 271 271 271 272 276 279 279 279 279 280 279 277 276 273 270 272 274 272 266 265 264 263 262 255 245 243 248 255 247 236 228 226 233 232 224 218 200 185 179 174 159
267 269 270 272 275 278 280 280 280 279 279 280 281 280 278 277 272 270 274 274 268 264 260 258 257 257 250 240 243 247 247 244 237 233 235 236 229 218 209 200 174 145 116
265 264 267 270 277 282 283 282 281 280 280 279 279 279 278 279 276 272 272 272 266 266 263 259 255 255 247 235 238 243 246 247 243 234 229 232 225 214 197 182 171 166 158
258 258 262 266 272 278 280 281 280 278 279 283 283 279 275 277 277 274 271 264 264 266 266 261 255 252 247 235 234 235 240 241 237 234 228 229 227 218 202 199 188 182 161
251 257 263 267 272 275 277 277 280 282 284 284 284 284 278 273 276 275 271 253 250 261 265 265 259 250 247 240 232 232 233 229 228 226 225 221 215 211 207 202 197 191 177
249 259 267 272 277 282 279 283 283 281 285 287 287 289 284 275 270 275 273 260 247 251 259 262 261 255 251 246 235 228 224 220 225 221 220 218 213 209 208 201 199 196 180
249 262 272 280 280 279 279 283 289 284 281 285 286 288 290 286 274 266 270 269 264 251 255 257 260 261 258 251 237 225 217 216 215 216 218 218 211 206 197 193 194 182 160
248 264 276 285 289 289 282 277 280 282 283 285 285 286 288 289 284 275 267 265 270 266 265 268 265 261 250 242 237 224 216 212 211 215 215 213 204 199 196 188 188 179 167
248 264 277 280 284 291 289 278 276 271 262 267 278 278 282 285 278 260 256 259 256 262 275 266 255 250 245 238 230 221 210 208 214 216 213 208 202 197 193 188 183 178 178
248 263 271 279 285 287 295 301 278 265 270 262 256 257 264 259 268 271 262 259 261 258 250 252 259 252 247 245 238 225 214 210 211 210 206 203 200 195 189 188 187 188 182
238 257 268 276 283 289 294 301 309 308 293 281 274 271 261 265 266 262 259 260 260 239 238 250 254 253 249 245 234 225 219 214 206 202 199 198 199 194 187 187 191 192 186
237 256 264 270 278 283 287 290 292 299 308 310 304 294 289 280 270 258 250 251 249 227 235 246 252 250 244 242 234 226 219 209 200 197 198 198 195 193 190 188 191 191 185
234 250 261 269 274 278 283 288 289 290 292 297 303 305 301 292 271 250 224 228 243 246 241 242 246 246 243 239 232 219 210 204 198 191 196 196 194 196 195 193 190 186 183
234 253 265 272 279 285 288 291 294 295 297 299 300 303 309 300 282 260 227 232 242 248 246 243 243 241 238 236 230 217 209 207 203 198 198 198 200 201 197 192 187 182 184
231 252 268 275 274 282 289 292 293 294 296 298 297 297 293 286 278 273 261 246 242 244 242 239 239 237 233 229 225 217 211 209 208 204 200 198 198 200 197 191 185 179 175
223 240 253 265 274 281 289 291 292 294 297 299 303 307 305 290 280 277 273 266 255 248 243 239 238 235 229 224 219 214 211 207 203 202 199 194 196 196 191 186 181 177 175
216 237 253 265 276 286 293 296 298 299 301 303 306 310 313 307 298 291 286 280 272 261 249 240 239 239 233 227 222 214 211 209 201 193 191 189 190 189 186 184 182 177 178
207 229 248 264 280 290 298 302 305 306 308 309 310 311 313 313 308 303 298 292 284 274 262 251 246 242 236 228 222 217 216 213 202 194 189 185 185 185 183 184 182 181 180
201 219 238 259 280 293 302 307 309 313 315 314 315 317 318 318 318 316 313 307 301 293 286 273 259 252 243 234 225 219 212 204 199 191 188 187 184 182 182 182 182 180 179
197 210 230 257 282 295 302 307 311 317 317 318 320 322 323 323 324 326 326 324 318 310 304 296 282 272 260 242 229 217 203 196 192 190 189 187 185 185 182 182 182 182 180
Height
1508 1507 1505 1503 1501 1499 1496 1494 1491 1489 1487 1484 1482 1480 1478 1477 1475 1474 1472 1471 1470 1469 1468 1468 1467 1468 1468 1468 1469 1469 1468 1468 1467 1466 1467 1467 1468 1469 1471 1473 1476 1480 1484
1505 1503 1501 1499 1497 1494 1492 1489 1487 1484 1482 1479 1477 1475 1473 1471 1470 1468 1467 1465 1464 1463 1463 1462 1462 1462 1462 1463 1463 1464 1464 1464 1464 1463 1463 1465 1465 1466 1468 1470 1473 1476 1480
1500 1498 1496 1494 1492 1490 1487 1485 1482 1479 1476 1474 1471 1469 1466 1465 1463 1462 1461 1459 1458 1457 1457 1456 1456 1456 1456 1457 1457 1458 1459 1460 1460 1460 1460 1461 1463 1464 1466 1468 1470 1473 1477
1496 1494 1492 1489 1487 1484 1482 1479 1476 1473 1470 1467 1465 1462 1460 1458 1457 1456 1454 1453 1452 1451 1451 1450 1450 1450 1450 1451 1451 1452 1454 1455 1456 1456 1457 1458 1459 1461 1463 1465 1467 1470 1474
1491 1489 1487 1484 1482 1479 1476 1473 1470 1467 1464 1461 1458 1455 1453 1452 1450 1449 1448 1447 1446 1445 1444 1444 1444 1444 1444 1445 1446 1447 1448 1449 1450 1452 1453 1454 1455 1457 1460 1462 1465 1467 1471
1486 1484 1481 1479 1476 1473 1470 1467 1464 1461 1457 1454 1451 1449 1447 1446 1445 1444 1442 1440 1439 1438 1437 1437 1437 1437 1437 1438 1439 1440 1442 1443 1445 1447 1448 1450 1451 1454 1456 1458 1461 1464 1468
1481 1479 1476 1473 1470 1468 1464 1461 1458 1454 1451 1448 1446 1443 1441 1440 1439 1438 1436 1434 1433 1431 1431 1430 1430 1430 1430 1431 1432 1434 1435 1437 1439 1441 1443 1445 1447 1450 1452 1454 1457 1461 1464
1476 1474 1471 1468 1465 1462 1459 1455 1452 1448 1445 1442 1440 1438 1436 1434 1433 1432 1430 1428 1426 1425 1424 1423 1423 1423 1423 1424 1424 1426 1427 1429 1432 1435 1437 1440 1443 1445 1448 1450 1453 1457 1461
1472 1469 1466 1463 1459 1456 1452 1449 1446 1443 1440 1437 1435 1432 1430 1429 1428 1426 1424 1421 1419 1418 1417 1416 1415 1415 1415 1416 1417 1417 1419 1422 1425 1428 1431 1434 1437 1440 1442 1446 1449 1452 1456
1467 1464 1460 1457 1454 1450 1447 1444 1441 1438 1434 1432 1429 1427 1425 1423 1421 1420 1418 1415 1413 1411 1410 1409 1408 1407 1407 1408 1409 1409 1411 1414 1418 1421 1424 1428 1431 1434 1437 1440 1443 1447 1451
1462 1458 1455 1452 1448 1445 1442 1439 1436 1433 1430 1427 1424 1422 1420 1417 1415 1413 1411 1409 1406 1405 1403 1401 1401 1400 1400 1400 1401 1402 1403 1407 1411 1414 1417 1421 1424 1428 1431 1434 1438 1442 1446
1457 1453 1450 1446 1443 1440 1437 1434 1431 1428 1425 1422 1419 1416 1414 1412 1410 1407 1405 1403 1401 1398 1397 1395 1394 1393 1393 1393 1393 1394 1397 1401 1403 1406 1409 1413 1417 1420 1425 1429 1433 1437 1441
1452 1449 1445 1442 1438 1435 1432 1429 1426 1424 1420 1417 1414 1411 1409 1406 1404 1401 1399 1397 1395 1393 1391 1390 1389 1388 1387 1386 1387 1388 1391 1393 1396 1399 1402 1406 1410 1415 1420 1424 1429 1432 1436
1448 1444 1441 1437 1434 1431 1428 1425 1422 1419 1416 1412 1409 1406 1403 1401 1399 1396 1394 1392 1390 1388 1387 1385 1384 1383 1382 1381 1382 1383 1384 1387 1390 1393 1397 1401 1406 1410 1414 1418 1423 1427 1430
1443 1440 1436 1432 1429 1426 1423 1420 1417 1414 1412 1408 1405 1402 1399 1395 1394 1391 1389 1387 1385 1384 1382 1381 1380 1379 1378 1378 1378 1379 1380 1382 1385 1388 1392 1396 1400 1404 1408 1412 1417 1421 1425
1438 1435 1431 1428 1424 1421 1418 1415 1413 1410 1407 1404 1401 1397 1394 1391 1388 1386 1384 1382 1381 1380 1379 1377 1377 1376 1375 1375 1375 1375 1376 1378 1380 1384 1387 1391 1395 1398 1402 1406 1411 1416 1420
1434 1430 1427 1424 1420 1417 1414 1410 1407 1404 1402 1400 1396 1393 1389 1386 1384 1382 1380 1378 1376 1376 1375 1374 1373 1372 1372 1372 1372 1372 1372 1374 1377 1380 1383 1386 1390 1394 1397 1401 1406 1410 1415
1429 1426 1423 1419 1416 1413 1410 1407 1403 1400 1396 1393 1391 1388 1385 1382 1379 1377 1375 1373 1372 1371 1370 1370 1369 1369 1369 1369 1369 1369 1370 1371 1373 1376 1379 1382 1385 1389 1393 1397 1401 1405 1410
1424 1421 1418 1415 1412 1409 1406 1403 1400 1397 1393 1389 1386 1383 1381 1378 1375 1373 1371 1369 1367 1366 1366 1365 1365 1365 1365 1365 1366 1366 1367 1369 1371 1373 1376 1378 1382 1385 1389 1392 1396 1400 1405
1419 1417 1414 1411 1408 1405 1402 1399 1396 1393 1389 1386 1383 1379 1376 1374 1371 1369 1367 1365 1363 1362 1361 1361 1361 1361 1361 1361 1362 1363 1364 1366 1368 1370 1373 1376 1379 1382 1385 1389 1392 1396 1400
1414 1412 1409 1406 1403 1401 1398 1395 1392 1389 1385 1382 1380 1377 1373 1370 1367 1365 1363 1360 1359 1357 1356 1356 1356 1356 1356 1357 1358 1359 1361 1362 1364 1367 1369 1372 1375 1379 1382 1386 1389 1392 1396
1409 1407 1404 1401 1399 1396 1393 1390 1388 1385 1382 1379 1376 1373 1370 1367 1364 1361 1358 1356 1354 1352 1351 1350 1350 1351 1352 1352 1353 1355 1356 1358 1360 1363 1366 1369 1372 1375 1379 1382 1386 1389 1393
1403 1401 1399 1397 1394 1392 1389 1386 1384 1381 1378 1376 1373 1370 1367 1364 1360 1357 1354 1351 1349 1348 1346 1345 1345 1345 1346 1347 1349 1350 1352 1354 1356 1359 1362 1365 1368 1371 1375 1379 1382 1386 1390
1397 1396 1394 1392 1390 1387 1385 1382 1380 1377 1375 1372 1370 1367 1364 1360 1357 1354 1350 1347 1345 1343 1342 1340 1340 1340 1341 1342 1343 1345 1347 1350 1352 1355 1358 1361 1364 1368 1372 1376 1379 1383 1387
1391 1390 1389 1387 1385 1383 1380 1378 1376 1373 1371 1369 1366 1364 1361 1358 1354 1351 1347 1344 1341 1339 1337 1336 1335 1335 1335 1336 1338 1340 1342 1345 1348 1351 1354 1358 1361 1365 1368 1372 1376 1380 1383
1386 1385 1384 1382 1381 1378 1376 1374 1372 1370 1368 1366 1364 1361 1358 1355 1352 1349 1345 1342 1339 1336 1334 1332 1330 1330 1330 1331 1332 1334 1337 1340 1343 1347 1350 1354 1357 1361 1364 1368 1372 1376 1380